Weather in Kansas City

United States     39°06′30″N   94°33′10″W
temp.,
°C
wind,
m/s
gust,
m/s
humid.,
%
clouds,
%
prec.,
mm/h
press.,
hPa
HPBL,
m
18 september, sat
sat1801:00+20nne2494100 3.1 101999
04:00+20e24951 0.0 101992
07:00+19ne22965 0.0 102054
10:00+23ene23781 0.6 1021292
13:00+30ese23450 0.6 10191216
16:00+33se23340 0.0 10162204
19:00+28s22454 0.0 101619
22:00+24s22590 0.0 101713
19 september, sun
sun1901:00+21s38710 0.0 1017170
04:00+20sse38840 0.0 1016187
07:00+19sse36910 0.0 1016133
10:00+26sse47620 0.0 1016598
13:00+31sse56420 0.0 10131616
16:00+32s56402 0.0 10102065
19:00+28sse495246 0.0 1009472
22:00+26sse612630 0.0 1010582
20 september, mon
mon2001:00+23sse613760 0.0 1009438
04:00+21sse513840 0.0 1008408
07:00+20s6168784 0.0 1008436
10:00+26s8156197 0.0 1007675
13:00+33s8123741 0.0 10061541
16:00+33ssw7113856 0.0 10051681
19:00+30sse5124591 0.0 1006673
22:00+18n7139583 2.4 1011436
21 september, tue
tue2101:00+16n61392100 5.4 1015692
04:00+14nnw5138640 0.0 1018528
07:00+13nnw5118649 0.0 1020477
10:00+17n711550 0.0 1023847
13:00+23n710310 0.0 10231783
16:00+25n68220 0.0 10222315
19:00+20n36310 0.0 1023132
22:00+16ne22380 0.0 102415
22 september, wed
wed2201:00+15ese11415 0.0 102510
04:00+13wnw11451 0.0 102520
07:00+12w11490 0.0 102613
10:00+20w34340 0.0 1027454
13:00+25nw34270 0.0 10251433
16:00+26nw23240 0.0 10222481
19:00+21ne01360 0.0 102211
22:00+16ese35380 0.0 102384